Regional Weather Roundup
Issued by NWS

Home | Current Version | Previous Version | Text Only | Print | Product List | Glossary Off
Versions: 1 2 3 4 5 6 7 8 9 10 11 12 13 14 15 16 17 18 19 20 21 22 23 24 25 26 27 28 29 30 31 32 33 34 35 36 37 38 39 40 41 42 43 44 45 46 47 48 49 50

000
ASUS43 KMKX 300821
RWRWI

WISCONSIN REGIONAL WEATHER ROUNDUP
NATIONAL WEATHER SERVICE MILWAUKEE/SULLIVAN WI
300 AM CDT THU MAR 30 2017

NOTE: "FAIR" INDICATES FEW OR NO CLOUDS BELOW 12,000 FEET WITH NO
SIGNIFICANT WEATHER AND/OR OBSTRUCTIONS TO VISIBILITY.

WIZ001-002-006>008-014>016-023>028-300900-
NORTHWEST WISCONSIN

CITY           SKY/WX    TMP DP  RH WIND       PRES   REMARKS
SUPERIOR ARPT  CLOUDY    33  32  95 E9        30.12F WCI  26
ASHLAND        CLOUDY    30  28  92 CALM      30.12F
HAYWARD        CLOUDY    32  28  85 N3        30.07F
SIREN          CLOUDY    35  30  81 CALM      30.07F
CUMBERLAND     CLOUDY    37  32  81 E5        30.05F WCI  34
RICE LAKE      CLOUDY    39  32  76 CALM      30.06F
CHETEK         CLOUDY    38  33  81 E5        30.06F WCI  35
LADYSMITH      CLOUDY    38  28  67 E9        30.08F WCI  32
EAU CLAIRE     LGT RAIN  37  34  89 NE12      30.02F WCI  29
MENOMONIE      DRIZZLE   38  36  92 NE9       30.02F WCI  31
NEW RICHMOND   CLOUDY    38  35  86 E8        30.02F WCI  33
OSCEOLA        DRIZZLE   40  36  84 NE5       30.06F
$$

WIZ003>005-009-010-017-018-300900-
NORTH CENTRAL WISCONSIN

CITY           SKY/WX    TMP DP  RH WIND       PRES   REMARKS
MANITOWISH WTR CLOUDY    34  23  63 SE6       30.10R WCI  29
ARBOR VITAE    CLOUDY    37  25  63 CALM      30.08F
WOODRUFF       CLOUDY    37  25  63 CALM      30.08F
RHINELANDER    CLOUDY    35  24  64 NE7       30.08F WCI  29
EAGLE RIVER    CLOUDY    33  22  65 E5        30.10R WCI  29
LAND O LAKES   CLOUDY    34  26  71 SE5       30.11F WCI  30
PHILLIPS       CLOUDY    35  25  67 E7        30.06F WCI  29
TOMAHAWK       CLOUDY    34  24  68 NE3       30.09S
MEDFORD        CLOUDY    33  28  80 E8        30.06F WCI  27
MERRILL        CLOUDY    35  27  74 E5        30.09S WCI  31
$$

WIZ029-030-035-036-043>047-300900-
CENTRAL WISCONSIN

CITY           SKY/WX    TMP DP  RH WIND       PRES   REMARKS
WAUSAU         FLURRIES  35  29  78 E5        30.07S WCI  31
MOSINEE        LGT SNOW  32  32 100 NE9       30.07S WCI  24
MARSHFIELD     CLOUDY    34  32  92 E14       30.03F WCI  25
STEVENS POINT  CLOUDY    32  32 100 E8        30.07S WCI  25
WAUPACA        LGT RAIN  38  36  92 NE12      30.08S WCI  30
WAUTOMA        LGT RAIN  36  34  93 NE12      30.03F WCI  27
WISC RAPIDS    LGT RAIN  34  34 100 E9        30.06F WCI  27
CAMP DOUGLAS   DRIZZLE   36  34  93 E10       29.99F WCI  28
$$

WIZ011>013-019>022-031-037>040-048>050-300900-
NORTHEAST WISCONSIN

CITY           SKY/WX    TMP DP  RH WIND       PRES   REMARKS
ANTIGO         CLOUDY    32  29  86 NE6       30.08S WCI  27
SHAWANO        LGT SNOW  37  31  79 E7        30.10S WCI  31
OCONTO         CLOUDY    34  30  85 CALM      30.11F
STURGEON BAY   CLOUDY    36  33  89 NE6       30.15R WCI  31
GREEN BAY      CLOUDY    35  35 100 NE8       30.09F WCI  29
MANITOWOC      CLOUDY    38  32  79 E10       30.08F WCI  31
APPLETON       RAIN      34  34 100 NE9       30.05F WCI  26
CLINTONVILLE   LGT RAIN  34  32  93 E5        30.09S WCI  30
OSHKOSH        CLOUDY    38  33  82 E9        30.05S WCI  31
$$

WIZ032>034-041-042-053>061-300900-
SOUTHWEST WISCONSIN

CITY           SKY/WX    TMP DP  RH WIND       PRES   REMARKS
LA CROSSE      LGT RAIN  39  35  86 NE12G21   29.96F WCI  32
SPARTA         LGT RAIN  35  35  96 NE8       30.00F WCI  29
VIROQUA        CLOUDY    35  34  98 E17G25    29.92F WCI  25
BOSCOBEL       LGT RAIN  39  32  76 NE8       29.93F WCI  33
PRAIRIE DU CHI CLOUDY    38  38  97 NE10      29.90F WCI  32
PLATTEVILLE    CLOUDY    40  40 100 E20       29.89F WCI  31
$$

WIZ056-057-062-063-064-067-068-300900-
SOUTH CENTRAL WISCONSIN

CITY           SKY/WX    TMP DP  RH WIND       PRES   REMARKS
REEDSBURG      RAIN      35  35 100 E9        29.97F WCI  28
BARABOO/DELLS  LGT RAIN  36  34  93 E13       29.97F WCI  27
LONE ROCK      LGT RAIN  39  35  86 E16       29.94F WCI  30
MINERAL POINT  LGT RAIN  39  39 100 E21G28    29.88F WCI  29
MADISON        RAIN      39  36  89 E16       29.96F WCI  30
MIDDLETON      CLOUDY    39  39 100 E14       29.96F WCI  31
WATERTOWN      CLOUDY    38  37  99 E10       29.99S WCI  31
MONROE         LGT RAIN  37  37 100 NE16      29.91F WCI  28
JANESVILLE     LGT RAIN  41  41 100 E17       29.93F
$$

WIZ051-052-058>065-066-070>072-300900-
SOUTHEAST WISCONSIN

CITY           SKY/WX    TMP DP  RH WIND       PRES   REMARKS
MILWAUKEE      LGT RAIN  39  34  82 E17       30.01F WCI  30
WAUKESHA       RAIN      36  34  93 E12G17    30.01S WCI  27
MILWAUKEE/TIMM LGT RAIN  36  32  87 E9        30.02F WCI  29
RACINE         LGT RAIN  38  34  85 E12G24    30.01F WCI  30
KENOSHA        RAIN      38  36  92 E20       29.97F FOG     WCI  28
FOND DU LAC    LGT RAIN  39  33  79 NE8       30.04F WCI  33
SHEBOYGAN      LGT RAIN  38  32  79 E10       30.04F WCI  31
WEST BEND      LGT RAIN  36  34  93 E10G17    30.02F WCI  28
JUNEAU         DRIZZLE   38  35  89 E9        30.02S WCI  31
$$

LSZ147-162-300900-
LAKE SUPERIOR

STATION/POSITION TIME  TEMP    WIND        PRES    WAVE
                       AIR SEA DIR/SP/G            HT/PER
                 (UTC) (F)     (DEG/KT/KT) (MB)    (FT/S)
DEVILS ISLAND    0800   34      40/ 13/ 14 1020.6F
PORT WING        0740   34      40/ 11/ 14 1020.0F
SAXON HARBOR     0740   33     330/  4/  4 1019.6S
$$

LMZ867-665-643>646-300900-
LAKE MICHIGAN

STATION/POSITION TIME  TEMP    WIND        PRES    WAVE
                       AIR SEA DIR/SP/G            HT/PER
                 (UTC) (F)     (DEG/KT/KT) (MB)    (FT/S)
CHAMBERS ISLAND  0740   36      60/  8/ 10 1020.0F
NORTHPORT PIER   0740   36     100/ 11/ 14 1021.3S
KEWAUNEE LAKESHO 0754   37     120/ 10/ 13 1018.8F
SHEBOYGAN LAKESH 0800   38      80/ 17/ 18 1017.7F
PORT WASHINGTON  0740   39      90/ 17/ 20 1017.6F
MILWAUKEE LAKESH 0800   38      70/ 17/ 19   N/A
KENOSHA   LAKESH 0800   38      80/ 23/ 26 1014.9
$$

TC  - TEMPERATURE IN CELSIUS
VSB - VISIBILITY IN STATUTE MILES
WCI - WIND CHILL INDEX
HX  - HEAT INDEX




USA.gov is the U.S. government's official web portal to all federal, state and local government web resources and services.